Home   Weather   Aurora   Past weeks
Flag for USA

Past Weather in Aurora, Colorado, USA — Yesterday and Last 2 Weeks

Now
37 °F

Passing clouds.


Feels Like: 32 °F
Forecast: 57 / 31 °F
Wind: 7 mph from South

Location: Buckley Air Force Base

Current Time: Mar 25, 2019 at 12:08:47 am

Latest Report: Mar 24, 2019 at 9:58 pm


Visibility: 10 mi

Pressure: 30.16 "Hg (24.59 "Hg at 1647m altitude)

Humidity: 95%

Dew Point: 36 °F

Location of AuroraLocation

Past Weather in Aurora — Graph

°F

Aurora Temperature Yesterday

Maximum temperature yesterday: 56 °F (at 2:58 pm)
Minimum temperature yesterday: 31 °F (at 5:58 am)
Average temperature yesterday: 42 °F

High & Low Weather Summary for the Past Weeks

 TemperatureHumidityPressure
High62 °F (Mar 12, 3:58 pm)100% (Mar 13, 12:58 am)30.43 "Hg (Mar 13, 12:58 am)
Low15 °F (Mar 15, 2:58 am)11% (Mar 20, 11:58 am)29.03 "Hg (Mar 13, 4:58 am)
Average37 °F67%30.08 "Hg
* Reported Mar 9 8:58 pm — Mar 24 9:58 pm, Aurora. Weather by CustomWeather, © 2019

Note: Actual official high and low records may vary slightly from our data, if they occured in-between our weather recording intervals... More about our weather records

Advertising

Aurora Weather History for the Previous 24 Hours

Scroll right to see more
 ConditionsComfort  
Time TempWeatherWind HumidityBarometerVisibility
9:58 pm
Sun, Mar 24
37 °FPassing clouds.7 mph95%30.16 "Hg10 mi
8:58 pm40 °FPartly cloudy.6 mph90%30.15 "Hg10 mi
7:58 pm42 °FPartly cloudy.No wind84%30.14 "Hg10 mi
6:58 pm42 °FBroken clouds.7 mph86%30.12 "Hg10 mi
5:58 pm49 °FSprinkles. Broken clouds.20 mph56%30.10 "Hg8 mi
4:58 pm53 °FBroken clouds.16 mph42%30.03 "Hg10 mi
2:58 pm56 °FBroken clouds.12 mph31%29.98 "Hg10 mi
1:58 pm55 °FScattered clouds.13 mph32%30.00 "Hg10 mi
12:58 pm54 °FPassing clouds.13 mph37%30.02 "Hg10 mi
11:58 am53 °FPassing clouds.10 mph36%30.04 "Hg10 mi
10:58 am50 °FPassing clouds.12 mph39%30.05 "Hg10 mi
9:58 am47 °FPassing clouds.6 mph39%30.06 "Hg10 mi
8:58 am42 °FPassing clouds.3 mph56%30.08 "Hg10 mi
7:58 am35 °FPassing clouds.6 mph68%30.07 "Hg10 mi
6:58 am32 °FPassing clouds.9 mph71%30.05 "Hg10 mi
5:58 am31 °FClear.10 mph76%30.02 "Hg10 mi
3:58 am32 °FClear.8 mph92%30.01 "Hg10 mi
2:58 am33 °FClear.8 mph94%30.01 "Hg10 mi
1:58 am33 °FClear.9 mph99%30.00 "Hg10 mi
12:58 am32 °FClear.10 mph99%30.02 "Hg10 mi
Weather by CustomWeather, © 2019

See weather overview